Okmulgee, OK

4:14 AM CST on December 13, 2017 (GMT -0600)
Okmulgee Regional

Weather History for KOKM - October, 2012

Change the Weather History Date:

Saturday, October 6, 2012

  Actual Average (KMKO) Record (KMKO)
Temperature  
Mean Temperature 46 °F -  
Max Temperature 51 °F 75 °F 90 °F (2016)
Min Temperature 41 °F 51 °F 41 °F (2012)
Degree Days  
Heating Degree Days 19    
Moisture  
Dew Point 36 °F    
Average Humidity 68    
Maximum Humidity 87    
Minimum Humidity 47    
Precipitation  
Precipitation 0.00 in - - ()
Sea Level Pressure  
Sea Level Pressure 30.27 in    
Wind  
Wind Speed 9 mph (NNE)    
Max Wind Speed 18 mph    
Max Gust Speed 21 mph    
Visibility 10 miles    
Events Rain , Thunderstorm    
Averages and records for this station are not official NWS values.
T = Trace of Precipitation, MM = Missing Value Source: NWS Daily Summary

Daily Weather History Graph

Daily Weather History Graph

Search for Another Location

Airport or City:

Trip Planner

Search our weather history database for the weather conditions in past years. The results will help you decide how hot, cold, wet, or windy it might be!

Date:

Astronomy

Oct. 06, 2012 Rise Set
Actual Time 7:23 AM CDT 6:59 PM CDT
Civil Twilight 6:57 AM CDT 7:25 PM CDT
Nautical Twilight 6:28 AM CDT 7:54 PM CDT
Astronomical Twilight 5:58 AM CDT 8:24 PM CDT
Moon 11:25 PM CDT (10/6) 1:09 PM CDT (10/6)
Length of Visible Light 12h 27m
Length of Day
11h 36m
Waning Gibbous, 65% of the Moon is Illuminated
Oct 6
Waning Gibbous
Oct 8
Last Quarter
Oct 15
New
Oct 21
First Quarter
Oct 29
Full

Hourly Weather History & Observations

Time (CDT) Temp. Windchill Dew Point Humidity Pressure Visibility Wind Dir Wind Speed Gust Speed Precip Events Conditions
12:15 AM 44.6 °F 40.2 °F 37.4 °F 76% 30.24 in 10.0 mi North 8.1 mph - N/A   Clear
12:35 AM 44.6 °F 40.7 °F 37.4 °F 76% 30.23 in 10.0 mi NNE 6.9 mph - N/A   Clear
12:55 AM 44.6 °F 39.7 °F 37.4 °F 76% 30.24 in 10.0 mi NNE 9.2 mph - N/A   Clear
1:15 AM 44.6 °F 39.7 °F 37.4 °F 76% 30.24 in 10.0 mi North 9.2 mph - N/A   Clear
1:35 AM 44.6 °F 39.2 °F 37.4 °F 76% 30.24 in 10.0 mi NNE 10.4 mph - N/A   Clear
1:55 AM 44.6 °F 39.7 °F 37.4 °F 76% 30.24 in 10.0 mi NNE 9.2 mph - N/A   Clear
2:15 AM 42.8 °F 37.0 °F 37.4 °F 81% 30.24 in 10.0 mi NNE 10.4 mph - N/A   Clear
2:35 AM 42.8 °F 37.5 °F 37.4 °F 81% 30.24 in 10.0 mi NNE 9.2 mph - N/A   Clear
2:55 AM 42.8 °F 37.5 °F 37.4 °F 81% 30.25 in 10.0 mi NNE 9.2 mph - N/A   Clear
3:15 AM 42.8 °F 38.0 °F 37.4 °F 81% 30.25 in 10.0 mi NNE 8.1 mph - N/A   Clear
3:35 AM 42.8 °F 38.6 °F 37.4 °F 81% 30.26 in 10.0 mi NNE 6.9 mph - N/A   Clear
3:55 AM 42.8 °F 39.3 °F 37.4 °F 81% 30.26 in 10.0 mi North 5.8 mph - N/A   Mostly Cloudy
4:15 AM 42.8 °F 37.5 °F 39.2 °F 87% 30.25 in 10.0 mi NNE 9.2 mph - N/A   Overcast
4:35 AM 44.6 °F 40.7 °F 37.4 °F 76% 30.26 in 10.0 mi NE 6.9 mph - N/A   Mostly Cloudy
4:55 AM 42.8 °F 38.6 °F 37.4 °F 81% 30.27 in 10.0 mi NE 6.9 mph - N/A   Scattered Clouds
5:15 AM 42.8 °F 39.3 °F 37.4 °F 81% 30.26 in 10.0 mi NNE 5.8 mph - N/A   Clear
5:35 AM 44.6 °F 39.7 °F 37.4 °F 76% 30.26 in 10.0 mi NNE 9.2 mph - N/A   Clear
5:55 AM 42.8 °F 38.6 °F 37.4 °F 81% 30.25 in 10.0 mi NE 6.9 mph - N/A   Clear
6:15 AM 44.6 °F 39.7 °F 37.4 °F 76% 30.26 in 10.0 mi NE 9.2 mph - N/A   Scattered Clouds
6:35 AM 44.6 °F 40.2 °F 35.6 °F 71% 30.24 in 10.0 mi ENE 8.1 mph - N/A   Scattered Clouds
6:55 AM 44.6 °F 40.2 °F 37.4 °F 76% 30.23 in 10.0 mi ENE 8.1 mph - N/A   Scattered Clouds
7:15 AM 42.8 °F 40.1 °F 37.4 °F 81% 30.26 in 10.0 mi NE 4.6 mph - N/A   Mostly Cloudy
7:35 AM 44.6 °F 42.2 °F 37.4 °F 76% 30.27 in 10.0 mi NNE 4.6 mph - N/A   Mostly Cloudy
7:55 AM 44.6 °F 40.7 °F 37.4 °F 76% 30.26 in 10.0 mi NNE 6.9 mph - N/A   Mostly Cloudy
8:15 AM 44.6 °F 40.2 °F 37.4 °F 76% 30.26 in 10.0 mi NNE 8.1 mph - N/A   Mostly Cloudy
8:35 AM 44.6 °F 41.4 °F 37.4 °F 76% 30.27 in 10.0 mi NE 5.8 mph - N/A   Scattered Clouds
8:55 AM 46.4 °F 42.9 °F 37.4 °F 71% 30.28 in 10.0 mi NNE 6.9 mph - N/A   Mostly Cloudy
9:15 AM 46.4 °F 42.4 °F 37.4 °F 71% 30.29 in 10.0 mi NNE 8.1 mph - N/A   Mostly Cloudy
9:35 AM 46.4 °F 42.4 °F 35.6 °F 66% 30.28 in 10.0 mi NE 8.1 mph - N/A   Mostly Cloudy
9:55 AM 46.4 °F 40.7 °F 35.6 °F 66% 30.29 in 10.0 mi NNE 12.7 mph - N/A   Scattered Clouds
10:15 AM 46.4 °F 42.9 °F 35.6 °F 66% 30.29 in 10.0 mi NE 6.9 mph - N/A   Mostly Cloudy
10:35 AM 46.4 °F 41.9 °F 37.4 °F 71% 30.29 in 10.0 mi NNE 9.2 mph - N/A   Mostly Cloudy
10:55 AM 46.4 °F 41.9 °F 37.4 °F 71% 30.30 in 10.0 mi NE 9.2 mph - N/A   Mostly Cloudy
11:15 AM 48.2 °F - 35.6 °F 62% 30.30 in 10.0 mi NNE 10.4 mph - N/A   Scattered Clouds
11:35 AM 50.0 °F - 33.8 °F 54% 30.29 in 10.0 mi NE 12.7 mph - N/A   Scattered Clouds
11:55 AM 50.0 °F - 33.8 °F 54% 30.30 in 10.0 mi NNE 11.5 mph 16.1 mph N/A Thunderstorm Mostly Cloudy
12:15 PM 50.0 °F - 33.8 °F 54% 30.29 in 10.0 mi ENE 13.8 mph 19.6 mph N/A   Mostly Cloudy
12:35 PM 51.8 °F - 33.8 °F 50% 30.29 in 10.0 mi NE 15.0 mph 20.7 mph N/A   Scattered Clouds
12:55 PM 51.8 °F - 33.8 °F 50% 30.29 in 10.0 mi NE 11.5 mph 19.6 mph N/A   Mostly Cloudy
1:15 PM 51.8 °F - 33.8 °F 50% 30.28 in 10.0 mi NE 18.4 mph - N/A   Mostly Cloudy
1:35 PM 51.8 °F - 32.0 °F 47% 30.28 in 10.0 mi NNE 16.1 mph 20.7 mph N/A   Mostly Cloudy
1:55 PM 51.8 °F - 32.0 °F 47% 30.26 in 10.0 mi NE 16.1 mph 19.6 mph N/A   Mostly Cloudy
2:15 PM 51.8 °F - 32.0 °F 47% 30.26 in 10.0 mi NE 11.5 mph 19.6 mph N/A   Mostly Cloudy
2:35 PM 51.8 °F - 32.0 °F 47% 30.25 in 10.0 mi ENE 13.8 mph 17.3 mph N/A   Mostly Cloudy
2:55 PM 51.8 °F - 32.0 °F 47% 30.26 in 10.0 mi NE 15.0 mph - N/A   Overcast
3:15 PM 50.0 °F - 32.0 °F 50% 30.26 in 10.0 mi NNE 13.8 mph 19.6 mph N/A   Mostly Cloudy
3:35 PM 50.0 °F - 35.6 °F 58% 30.26 in 10.0 mi NNE 11.5 mph - N/A Rain Light Rain
3:55 PM 50.0 °F - 35.6 °F 58% 30.24 in 10.0 mi NE 10.4 mph - N/A   Mostly Cloudy
4:15 PM 50.0 °F - 33.8 °F 54% 30.26 in 10.0 mi NNE 12.7 mph - N/A   Overcast
4:35 PM 50.0 °F - 33.8 °F 54% 30.23 in 10.0 mi NE 11.5 mph - N/A   Overcast
4:55 PM 48.2 °F - 33.8 °F 58% 30.22 in 10.0 mi NE 10.4 mph - N/A   Overcast
5:15 PM 50.0 °F - 35.6 °F 58% 30.25 in 10.0 mi NNE 8.1 mph - N/A   Overcast
5:35 PM 50.0 °F - 35.6 °F 58% 30.24 in 10.0 mi NNE 9.2 mph - N/A Rain Light Rain
6:15 PM 48.2 °F - 37.4 °F 66% 30.26 in 10.0 mi North 9.2 mph - N/A   Overcast
6:35 PM 48.2 °F - 35.6 °F 62% 30.27 in 10.0 mi NNE 11.5 mph - N/A   Overcast
6:55 PM 48.2 °F - 33.8 °F 58% 30.27 in 10.0 mi North 9.2 mph - N/A   Mostly Cloudy
7:15 PM 48.2 °F - 35.6 °F 62% 30.28 in 10.0 mi North 10.4 mph - N/A   Overcast
7:35 PM 46.4 °F 41.9 °F 33.8 °F 62% 30.28 in 10.0 mi NNE 9.2 mph - N/A   Mostly Cloudy
7:55 PM 46.4 °F 42.9 °F 35.6 °F 66% 30.28 in 10.0 mi NNE 6.9 mph - N/A   Mostly Cloudy
8:15 PM 46.4 °F 43.5 °F 35.6 °F 66% 30.29 in 10.0 mi NNE 5.8 mph - N/A   Mostly Cloudy
8:35 PM 46.4 °F 43.5 °F 35.6 °F 66% 30.29 in 10.0 mi NNE 5.8 mph - N/A   Mostly Cloudy
8:55 PM 46.4 °F 43.5 °F 35.6 °F 66% 30.29 in 10.0 mi NNE 5.8 mph - N/A   Mostly Cloudy
9:15 PM 46.4 °F 45.2 °F 35.6 °F 66% 30.29 in 10.0 mi North 3.5 mph - N/A   Mostly Cloudy
9:35 PM 44.6 °F 42.2 °F 37.4 °F 76% 30.30 in 10.0 mi North 4.6 mph - N/A   Mostly Cloudy
9:55 PM 44.6 °F 42.2 °F 37.4 °F 76% 30.30 in 10.0 mi North 4.6 mph - N/A   Mostly Cloudy
10:15 PM 44.6 °F 41.4 °F 35.6 °F 71% 30.31 in 10.0 mi North 5.8 mph - N/A   Scattered Clouds
10:35 PM 42.8 °F 40.1 °F 35.6 °F 76% 30.31 in 10.0 mi North 4.6 mph - N/A   Mostly Cloudy
10:55 PM 42.8 °F 39.3 °F 33.8 °F 70% 30.31 in 10.0 mi North 5.8 mph - N/A   Mostly Cloudy
11:15 PM 41.0 °F 37.1 °F 33.8 °F 76% 30.31 in 10.0 mi North 5.8 mph - N/A   Scattered Clouds
11:35 PM 41.0 °F 39.0 °F 33.8 °F 76% 30.31 in 10.0 mi North 3.5 mph - N/A   Clear
11:55 PM 41.0 °F 38.0 °F 32.0 °F 70% 30.31 in 10.0 mi North 4.6 mph - N/A   Clear